Flag for Estonia Weather past 2 weeks in Narva, Estonia

Now
55 °F

Clear.


Feels Like: 55 °F
Forecast: 64 / 86 °F
Wind: 1 mph from Southwest

Location: Narva

Current Time: Jul 26, 2014 at 5:10:52 AM

Latest Report: Jul 26, 2014 at 4:00 AM


Visibility: 13 mi

Pressure: 30.15 "Hg

Humidity: 97%

Dew point: 54 °F

Location of NarvaLocation

Historic Weather in Narva — Graph

°F

Narva temperature yesterday

Maximum temperature yesterday: 82 °F (at 5:00 PM)
Minimum temperature yesterday: 52 °F (at 5:00 AM)
Average temperature yesterday: 69 °F

Past Weeks' High & Low Weather Summary

 TemperatureHumidityPressure
High83 °F (Jul 24, 4:00 PM)100% (Jul 17, 6:00 AM)30.25 "Hg (Jul 17, 6:00 AM)
Low48 °F (Jul 11, 4:00 AM)37% (Jul 20, 6:00 PM)29.87 "Hg (Jul 13, 10:00 PM)
Average68 °F72%30.09 "Hg
* Reported Jul 11 3:00 AM — Jul 26 3:00 AM, Narva, Weather by CustomWeather, © 2014

Note: Actual official high and low records may vary slightly from our data, if they occured in-between our weather recording intervals... More about our weather records

Advertising

Narva weather history for previous 24 hours

 ConditionsComfort  
Time TempWeatherWind HumidityBarometerVisibility
3:00 AM
Jul 26
56 °FClear.2 mph97%30.14 "Hg12 mi
2:00 AM56 °FClear.2 mph99%30.15 "Hg12 mi
1:00 AM57 °FClear.1 mph99%30.15 "Hg5 mi
12:00 AM61 °FClear.1 mph95%30.14 "Hg12 mi
11:00 PM
Jul 25
60 °FClear.1 mph97%30.14 "Hg10 mi
10:00 PM63 °FClear.2 mph89%30.14 "Hg11 mi
9:00 PM72 °FPassing clouds.2 mph71%30.13 "Hg12 mi
8:00 PM78 °FSunny.2 mph56%30.14 "Hg12 mi
7:00 PM80 °FSunny.2 mph48%30.14 "Hg12 mi
6:00 PM81 °FSunny.2 mph42%30.14 "Hg12 mi
5:00 PM82 °FSunny.2 mph40%30.15 "Hg12 mi
4:00 PM81 °FSunny.3 mph42%30.17 "Hg12 mi
3:00 PM81 °FSunny.3 mph42%30.18 "Hg12 mi
2:00 PM81 °FSunny.3 mph45%30.19 "Hg12 mi
1:00 PM81 °FSunny.2 mph41%30.20 "Hg12 mi
12:00 PM80 °FSunny.1 mph38%30.20 "Hg12 mi
11:00 AM78 °FSunny.1 mph43%30.20 "Hg12 mi
10:00 AM76 °FSunny.1 mph53%30.20 "Hg12 mi
9:00 AM71 °FSunny.1 mph66%30.21 "Hg12 mi
8:00 AM67 °FSunny.2 mph76%30.21 "Hg12 mi
7:00 AM63 °FSunny.1 mph83%30.21 "Hg12 mi
6:00 AM58 °FSunny.1 mph88%30.21 "Hg12 mi
5:00 AM52 °FSunny.1 mph99%30.21 "Hg1 mi
Weather by CustomWeather, © 2014

See weather overviewHow to use our weather pages